Home   Weather   Ceuta   Past weeks

Flag for Spain Past Weather in Ceuta, Ceuta, Spain — Yesterday and Last 2 Weeks

Now
64 °F

Haze.


Feels Like: 64 °F
Forecast: 57 / 64 °F
Wind: 16 mph from West

Location: Gibraltar Airport

Current Time: Feb 24, 2017 at 6:58:35 pm

Latest Report: Feb 24, 2017 at 5:50 pm


Visibility: 5 mi

Pressure: 29.98 "Hg

Humidity: 68%

Dew Point: 54 °F

Location of CeutaLocation

Past Weather in Ceuta — Graph

°F

Ceuta Temperature Yesterday

Maximum temperature yesterday: 66 °F (at 3:50 pm)
Minimum temperature yesterday: 57 °F (at 3:50 am)
Average temperature yesterday: 60 °F

High & Low Weather Summary for the Past Weeks

 TemperatureHumidityPressure
High66 °F (Feb 23, 3:50 pm)100% (Feb 11, 1:50 am)30.39 "Hg (Feb 11, 1:50 am)
Low50 °F (Feb 10, 7:50 am)52% (Feb 23, 3:50 pm)29.47 "Hg (Feb 12, 5:50 pm)
Average58 °F82%30.02 "Hg
* Reported Feb 9 4:50 pm — Feb 24 4:50 pm, Ceuta, Weather by CustomWeather, © 2017

Note: Actual official high and low records may vary slightly from our data, if they occured in-between our weather recording intervals... More about our weather records

Advertising

Ceuta Weather History for the Previous 24 Hours

Scroll right to see more
 ConditionsComfort  
Time TempWeatherWind HumidityBarometerVisibility
4:50 pm
Fri, Feb 24
64 °FHaze.16 mph68%29.95 "Hg5 mi
3:50 pm66 °FHaze.12 mph64%29.95 "Hg6 mi
2:50 pm66 °FPassing clouds.16 mph64%29.95 "HgN/A
1:50 pm64 °FScattered clouds.15 mph68%29.95 "HgN/A
12:50 pm64 °FPassing clouds.13 mph68%29.98 "HgN/A
11:50 am63 °FPassing clouds.12 mph77%29.98 "HgN/A
10:50 am61 °FScattered clouds.10 mph77%29.98 "HgN/A
9:50 am59 °FHaze.12 mph82%29.95 "Hg5 mi
8:50 am57 °FPartly sunny.13 mph88%29.95 "Hg5 mi
7:50 am57 °FPassing clouds.13 mph88%29.92 "Hg5 mi
6:50 am57 °FPartly cloudy.12 mph82%29.92 "HgN/A
5:50 am57 °FPassing clouds.16 mph88%29.89 "HgN/A
4:50 am57 °FPassing clouds.12 mph82%29.92 "HgN/A
3:50 am57 °FPartly cloudy.13 mph88%29.92 "HgN/A
2:50 am57 °FPassing clouds.14 mph88%29.92 "HgN/A
1:50 am55 °FClear.10 mph88%29.92 "HgN/A
12:50 am55 °FClear.10 mph94%29.92 "HgN/A
11:50 pm
Thu, Feb 23
57 °FPassing clouds.13 mph82%29.92 "HgN/A
10:50 pm57 °FPassing clouds.7 mph82%29.92 "HgN/A
9:50 pm57 °FPassing clouds.6 mph82%29.92 "HgN/A
8:50 pm59 °FPassing clouds.8 mph82%29.92 "HgN/A
7:50 pm61 °FPartly cloudy.9 mph77%29.89 "HgN/A
6:50 pm63 °FBroken clouds.7 mph68%29.89 "HgN/A
Weather by CustomWeather, © 2017

See weather overviewHow to use our weather pages